CAPE
154 398 558 704 571 154 0 0 0 0 0 0 3 2 22 71 147 240 367 488 568 584 653 702 727 782 872 894 856 875 916 972 1002 1056 1122 1158 1173 1280 1513 1687 1777 1829 1878 1895 1971 2035 2050 2182 2394 2649 2707 2696 2697 2773 2793 2802 2750 2669 2504 2632 2573 2798 2653
156 190 322 704 706 440 37 22 0 0 0 0 1 0 8 69 130 236 339 439 516 546 628 704 716 750 852 955 976 976 996 1033 1136 1416 1165 1175 1453 1216 1300 1491 1650 1763 1845 1875 1917 1987 1980 2100 2371 2484 2632 2859 2812 2649 2683 2716 2739 2743 2643 2465 2518 2646 2695
234 136 180 658 751 701 256 38 27 25 4 0 2 0 2 56 126 219 334 389 463 513 585 680 720 726 775 907 1020 1063 1075 1079 1163 1342 1220 1217 1264 1256 1265 1314 1442 1584 1699 1777 1813 1881 2071 2071 2269 2372 2544 2674 2807 2648 2648 2664 2746 2697 2660 2521 2676 2678 2654
326 268 135 528 838 742 597 223 50 38 48 45 10 1 0 55 116 168 292 408 436 473 540 652 702 708 735 840 1015 1107 1156 1146 1142 1265 1294 1268 1264 1272 1282 1283 1312 1387 1541 1616 1690 1785 2113 2086 2180 2247 3085 2532 2643 2651 2672 2654 2694 2593 2569 2472 2480 2551 2549
577 326 560 518 640 722 744 572 464 79 114 103 0 5 0 23 105 130 198 380 366 436 488 590 668 688 705 761 929 1079 1188 1245 1187 1214 1303 1306 1285 1292 1295 1297 1281 1297 1435 1536 1714 1995 2085 2108 2045 2188 2393 2476 2506 2571 2620 2623 2602 2583 2491 2417 2372 2324 2415
791 624 456 682 652 653 706 690 686 433 137 154 113 66 66 26 89 129 148 373 422 385 377 501 594 681 706 757 829 979 1134 1259 1312 1290 1284 1288 1293 1337 1382 1409 1418 1328 1317 1426 1710 1890 1891 2024 2052 2022 2108 2271 2428 2504 2551 2633 2623 2575 2537 2389 2323 2300 2375
958 892 650 473 431 421 519 572 698 732 427 486 526 516 194 99 65 58 217 249 432 451 397 531 554 590 678 846 848 951 1033 1166 1309 1418 1463 1459 1441 1398 1374 1378 1422 1361 1326 1375 1442 1686 1850 1952 2058 2011 1972 1994 2336 2399 2523 2648 2732 2603 2618 2532 2457 2242 2303
1106 972 911 864 600 556 560 643 651 922 684 589 694 768 623 419 106 157 317 283 441 513 448 540 618 561 626 867 930 905 942 1042 1178 1327 1434 1514 1556 1556 1520 1394 1369 1397 1378 1366 1368 1416 1607 1764 1924 2110 2040 2021 2061 2276 2399 2573 2662 2567 2609 2638 2560 2472 2306
1155 1117 1142 1142 1108 1077 975 697 694 600 552 582 639 694 944 899 617 446 516 581 614 582 555 531 698 698 642 795 965 979 964 999 1075 1162 1298 1409 1486 1560 1584 1430 1348 1406 1429 1412 1395 1420 1470 1523 1629 1853 2070 2091 2124 2136 2284 2490 2602 2612 2685 2683 2622 2614 2596
1298 1284 1296 1255 1260 1258 1263 1178 1014 856 737 590 462 384 587 677 894 774 694 648 752 841 858 774 811 900 817 808 990 1076 1032 1060 1061 1078 1158 1253 1347 1453 1526 1486 1265 1325 1386 1472 1506 1543 1611 1643 1692 1723 1800 2039 2154 2104 2203 2330 2515 2615 2580 2692 2687 2666 2664
1111 1080 991 1036 1050 1123 1152 1165 1152 1023 929 797 617 403 308 458 685 955 1100 1035 1006 1003 1072 1083 1229 1162 1033 988 1030 1102 1113 1140 1142 1132 1141 1184 1244 1320 1405 1458 1411 1264 1263 1292 1329 1350 1349 1407 1498 1570 1609 1797 2047 2132 2120 2211 2378 2524 2531 2573 2655 2669 2633
796 788 678 670 783 840 864 878 953 1087 1147 1006 737 576 475 407 481 689 833 979 1132 1032 1195 1291 1082 1023 1321 1228 1151 1120 1109 1174 1208 1216 1215 1211 1220 1249 1285 1344 1386 1396 1334 1293 1303 1290 1300 1338 1394 1414 1413 1523 1855 2048 2094 2107 2175 2320 2460 2476 2509 2564 2588
629 564 514 532 475 462 401 608 709 809 868 953 716 613 674 510 594 568 339 759 935 890 974 930 1084 1007 1083 1357 1475 1272 1205 1163 1182 1218 1233 1241 1223 1198 1186 1210 1288 1342 1350 1343 1338 1359 1379 1391 1399 1386 1361 1326 1481 1798 1999 2006 1961 2046 2164 2260 2354 2404 2509
489 464 506 589 570 421 372 505 704 932 1025 956 834 810 764 630 461 516 466 563 467 844 1105 1127 1024 912 992 1268 1346 1219 1280 1243 1170 1154 1186 1208 1220 1209 1200 1162 1176 1210 1258 1254 1229 1189 1179 1190 1186 1174 1135 1121 1208 1443 1716 1873 1863 1831 1895 1988 2066 2118 2216
448 491 558 644 684 767 696 712 742 863 910 952 913 866 872 794 673 561 527 425 444 389 724 764 897 948 965 1107 1225 1295 1513 1410 1327 1261 1227 1224 1220 1242 1231 1207 1144 1102 1107 1105 1093 1073 1071 1076 1076 1059 1037 1031 1035 1169 1404 1552 1697 1729 1719 1745 1797 1862 1913
381 492 543 604 665 705 706 625 665 701 757 735 715 736 811 793 766 772 639 648 576 517 616 469 808 840 878 948 1072 1234 1279 1326 1507 1535 1456 1421 1431 1448 1437 1398 1327 1251 1186 1133 1074 1040 1077 1094 1094 1078 1012 969 966 984 1120 1349 1468 1541 1474 1545 1788 1722 1758
257 323 452 569 614 675 579 518 496 608 627 643 665 711 742 762 745 766 827 802 746 703 704 670 790 832 748 820 902 1047 1087 1124 1369 1542 1515 1465 1544 1662 1747 1722 1628 1511 1406 1325 1274 1265 1269 1234 1060 984 970 929 941 986 1009 1050 1229 1242 1288 1387 1485 1646 1636
284 280 372 492 613 707 687 639 612 650 674 604 660 704 712 726 624 570 694 619 695 706 673 787 815 779 746 730 767 918 1105 1212 1276 1296 1488 1619 1715 1788 1787 1794 1545 1263 1280 1392 1461 1450 1400 1282 1116 999 893 873 871 846 829 830 830 865 1070 1208 1304 1375 1491
399 427 389 493 604 654 790 695 515 519 628 560 604 637 663 646 598 552 556 643 586 590 614 660 682 708 613 626 641 666 702 879 1075 1173 1267 1391 1454 1442 1517 1545 1520 1397 1145 1066 1235 1435 1475 1404 1187 1019 879 844 726 680 671 639 602 550 502 780 1008 1191 1280
535 558 472 596 556 585 845 732 488 522 546 522 561 512 509 559 602 505 450 414 523 593 619 574 561 588 627 612 498 632 663 808 911 1072 1103 1061 1081 1135 1237 1271 1291 1297 1279 1188 1079 1047 1195 1221 1114 1022 994 952 865 732 640 562 557 499 414 391 489 660 839
536 509 506 561 621 686 751 695 523 516 536 556 560 546 514 521 475 449 410 406 398 482 495 533 498 650 746 741 699 605 666 685 762 892 908 926 943 974 985 1001 1018 1069 1114 1112 1101 1035 883 835 821 751 898 1082 1120 1041 927 827 746 711 685 635 466 445 433
320 301 355 362 434 569 652 548 434 393 368 373 436 539 503 527 487 426 402 402 378 409 406 414 479 466 474 643 666 661 689 746 768 752 765 824 878 953 1006 1055 1098 1058 1064 1158 1260 1324 1292 1286 1251 1227 1160 1009 1070 1078 1092 1069 994 942 901 825 672 674 603
168 129 78 79 108 140 342 450 453 351 292 267 306 546 502 556 504 442 396 368 364 348 371 358 317 439 404 518 731 733 788 813 837 874 853 878 958 1016 1063 999 966 983 1041 1166 1289 1436 1438 1324 1410 1507 1480 1447 1406 1281 1071 1073 1013 936 815 702 627 771 756
246 202 201 215 172 202 182 145 165 211 197 266 382 414 384 376 332 276 244 213 224 276 272 274 314 387 486 545 639 552 614 696 663 694 756 788 888 964 1026 978 938 980 1061 1104 1214 1266 1368 1490 1511 1510 1459 1412 1380 1391 1415 1421 1379 1258 1110 956 814 678 771
121 147 163 175 192 184 155 162 172 181 223 270 236 190 175 162 164 162 8 0 95 166 203 204 253 312 356 379 436 482 465 453 437 378 496 516 390 508 818 835 997 1066 1046 1112 1134 1192 1242 1344 1342 1351 1335 1323 1329 1432 1530 1509 1453 1361 1290 1235 1166 1052 940
68 72 59 76 88 89 63 71 95 126 140 130 51 4 87 114 132 71 7 130 120 116 151 160 196 227 276 283 293 275 308 390 365 361 302 294 310 295 292 436 710 885 868 869 920 989 1081 1173 1180 1174 1190 1214 1258 1308 1375 1386 1386 1391 1359 1345 1300 1269 1213
34 59 50 43 28 25 31 11 0 0 0 0 0 0 0 0 0 0 0 0 0 0 0 0 30 88 165 212 270 290 254 243 251 255 238 214 150 174 264 248 387 477 548 636 702 848 898 949 1009 1024 1001 1056 1132 1172 1214 1224 1244 1298 1383 1397 1418 1341 1301
0 0 2 16 22 14 0 0 0 0 0 0 0 0 0 0 0 0 0 0 0 0 0 0 0 0 0 0 0 148 185 186 180 175 162 167 161 208 228 232 194 200 242 337 444 527 708 830 788 846 924 906 913 928 946 977 1015 1089 1203 1353 1520 1476 1389
0 0 0 0 0 0 0 0 0 0 0 0 0 0 0 0 0 0 0 0 0 0 0 0 0 0 0 0 0 0 0 0 0 0 0 0 0 45 52 152 188 178 189 179 173 249 319 437 462 537 670 767 820 807 828 868 1029 859 927 1034 1126 1213 1339
0 0 0 0 0 0 0 0 0 0 0 0 0 0 0 0 0 0 0 0 0 0 0 0 0 0 0 0 0 0 0 0 0 0 0 0 0 0 0 0 0 83 94 142 159 184 205 292 204 201 289 246 305 392 467 548 821 686 717 764 838 847 1035
0 0 0 0 0 0 0 0 0 0 0 0 0 0 0 0 0 0 0 0 0 0 0 0 0 0 0 0 0 0 0 0 0 0 0 0 0 0 0 0 0 0 0 0 0 72 127 163 159 114 4 24 207 277 286 275 552 383 424 465 542 621 672
0 0 0 0 0 0 0 0 0 0 0 0 0 0 0 0 0 0 0 0 0 0 0 0 0 0 0 0 0 0 0 0 0 0 0 0 0 0 0 0 0 0 0 0 0 0 0 0 0 73 38 0 0 0 3 96 204 222 280 319 368 388 408
0 0 0 0 0 0 0 0 0 0 0 0 0 0 0 0 0 0 0 0 0 0 0 0 0 0 0 0 0 0 0 0 0 0 0 0 0 0 0 0 0 0 0 0 0 0 0 0 0 0 0 0 0 0 0 2 6 9 0 35 176 247 264
0 0 0 0 0 0 0 0 0 0 0 0 0 0 0 0 0 0 0 0 0 0 0 0 0 0 0 0 0 0 0 0 0 0 0 0 0 0 0 0 0 0 0 0 0 0 0 0 0 0 0 0 0 0 0 0 0 0 0 0 1 0 1
0 0 0 0 0 0 0 0 0 0 0 0 0 0 0 0 0 0 0 0 0 0 0 0 0 0 0 0 0 0 0 0 0 0 0 0 0 0 0 0 0 0 0 0 0 0 0 0 0 0 0 0 0 0 0 0 0 0 0 0 0 0 0
9 0 0 0 0 0 0 0 0 0 0 0 0 0 0 0 0 0 0 0 0 0 0 0 0 0 0 0 0 1 0 0 0 0 0 0 0 0 0 0 0 0 0 0 0 0 0 0 0 0 0 0 0 0 0 0 0 0 0 0 0 0 0
0 0 0 0 0 0 0 0 0 0 0 0 0 0 0 0 0 0 0 0 0 0 0 0 0 0 0 3 4 10 1 0 0 0 0 0 0 0 0 0 0 0 0 0 0 0 0 0 0 0 0 0 0 0 0 0 0 0 0 0 0 0 0
0 0 0 0 0 0 0 0 0 0 0 0 0 0 0 0 0 0 0 0 0 0 0 0 0 0 0 3 8 6 7 0 0 0 0 0 0 0 0 0 0 0 0 0 0 0 0 0 0 0 0 0 0 0 0 0 0 0 0 0 0 0 0
Wind_Speed
17 24 28 28 26 22 nan nan nan nan nan nan nan nan nan nan 7 7 8 8 6 8 8 9 9 11 10 10 11 11 12 12 11 9 8 8 7 8 7 7 6 5 6 5 5 5 5 6 6 6 6 6 5 5 5 5 5 5 4 4 4 3 3
13 19 27 29 26 24 nan nan nan nan nan nan nan nan nan nan 8 7 7 7 6 6 7 8 9 10 11 11 12 12 12 12 11 11 10 10 10 10 8 8 8 7 6 5 5 6 6 5 6 6 6 6 6 6 6 6 5 4 4 3 3 3 3
10 11 21 27 24 23 22 nan nan nan nan nan nan nan nan nan 6 4 5 6 6 8 9 7 7 9 11 12 13 12 13 13 12 11 11 11 11 10 10 10 9 9 8 8 7 7 7 7 6 7 7 7 7 6 6 6 6 5 4 4 3 3 3
10 10 14 25 29 29 27 23 nan nan nan nan nan nan nan nan 6 6 5 4 4 6 6 7 8 9 10 11 12 14 13 13 13 12 12 13 12 12 12 11 11 11 12 9 8 9 8 8 7 7 8 8 7 8 7 6 7 6 6 5 5 4 4
16 18 27 28 26 28 30 30 30 nan 18 14 nan nan nan nan 8 8 8 7 5 4 3 4 8 9 10 11 13 15 14 14 15 15 14 14 14 13 12 12 12 12 11 12 11 11 10 9 8 8 8 8 8 9 8 8 7 7 7 7 6 6 6
20 21 20 25 31 34 36 35 29 23 19 16 16 nan nan nan nan 10 10 10 7 8 10 9 8 9 10 11 13 15 18 17 17 16 16 15 15 15 14 13 14 13 13 12 13 11 11 11 10 9 9 9 9 9 9 8 8 8 8 8 7 7 7
21 19 17 22 34 40 39 33 29 30 31 29 25 19 17 nan nan nan 15 11 10 10 9 8 8 9 11 14 14 15 16 17 19 17 18 17 16 16 15 16 15 14 13 15 13 13 13 11 10 10 9 9 9 9 9 8 8 9 9 8 7 7 7
23 21 19 22 27 28 27 24 25 32 32 29 23 20 19 20 21 18 15 13 13 13 12 11 11 10 12 14 15 14 16 18 20 20 20 18 18 18 17 17 17 16 16 14 13 14 12 11 12 12 11 11 10 10 10 9 9 10 10 9 8 7 8
29 26 22 22 23 23 22 24 29 31 28 22 24 27 26 23 20 17 16 16 16 16 15 15 14 14 15 15 16 16 18 20 21 22 21 19 20 19 19 19 18 18 17 16 16 15 13 12 12 12 13 12 11 11 11 10 10 11 11 10 9 8 7
29 28 26 23 22 22 23 28 31 30 29 32 32 33 34 34 33 27 22 20 22 19 20 21 21 20 19 18 18 18 20 21 21 22 21 21 21 20 20 20 20 20 19 18 18 17 15 14 13 13 13 12 12 11 11 11 11 11 11 10 10 9 8
28 27 27 27 25 26 28 30 26 23 25 27 29 35 37 36 35 31 27 26 23 24 29 28 27 26 23 21 20 21 20 20 22 21 21 21 23 22 23 22 22 22 20 20 19 18 18 16 15 14 14 14 13 12 11 10 11 11 11 11 11 11 10
28 26 26 25 29 31 29 26 22 20 24 33 37 39 36 30 25 21 22 22 25 29 31 32 35 33 29 25 22 22 21 20 20 19 19 20 23 24 25 25 23 22 22 21 19 19 18 17 17 16 15 14 13 13 11 10 11 11 10 11 12 12 12
30 28 28 30 33 33 33 30 29 28 29 29 30 28 26 24 24 27 32 36 38 36 35 35 33 30 32 29 27 26 23 20 18 19 20 21 22 25 27 26 26 24 23 23 21 21 20 20 19 19 18 16 15 14 13 11 11 11 11 11 12 12 13
36 34 34 35 37 36 32 31 34 33 31 28 27 24 23 26 28 29 29 29 30 31 32 30 30 32 34 36 37 30 23 21 24 25 26 28 28 28 27 27 26 25 25 25 23 22 22 22 21 21 20 18 16 16 15 14 13 13 12 12 12 13 13
40 39 38 39 38 37 36 34 35 35 33 32 30 29 30 30 29 27 26 26 28 30 30 28 25 26 33 37 37 26 24 29 34 34 33 32 31 30 30 30 30 30 28 26 24 24 23 23 23 22 20 19 18 18 18 17 16 17 15 14 13 13 12
41 41 42 41 40 39 39 38 36 34 34 33 30 29 29 28 27 28 28 28 28 27 26 25 22 23 28 33 32 31 36 36 36 34 33 34 33 34 33 33 33 35 36 35 31 28 26 24 24 22 21 19 19 19 19 18 19 16 12 13 15 15 14
41 41 41 42 44 43 42 41 39 35 34 33 31 29 28 28 27 29 29 29 30 31 27 22 17 19 24 27 28 35 38 38 34 34 35 36 35 33 32 32 34 37 39 39 37 35 32 29 25 22 22 20 20 19 18 18 18 13 13 12 11 15 16
40 38 38 41 43 43 43 43 43 40 35 33 32 31 31 31 30 32 31 28 29 30 29 26 22 21 22 24 24 26 32 35 36 38 37 35 35 35 34 34 34 34 36 38 38 35 33 31 28 27 25 24 21 19 19 18 16 13 13 13 12 14 16
39 35 34 36 39 41 41 41 42 41 36 34 33 33 33 33 33 35 33 30 28 31 33 32 30 28 29 30 28 25 27 34 38 41 41 39 40 41 39 36 35 35 33 34 35 33 30 28 27 25 24 23 22 20 20 19 18 14 13 13 13 13 15
41 36 33 35 37 39 38 37 38 38 38 36 37 36 35 36 36 35 34 32 32 33 31 31 32 30 28 27 27 29 31 32 35 40 44 41 40 42 39 35 33 31 30 30 31 31 31 30 26 26 25 23 22 21 21 21 21 18 15 14 14 14 17
42 38 37 37 39 39 38 37 38 39 40 39 38 37 37 37 37 37 37 35 36 36 34 32 32 32 28 27 25 24 23 25 29 34 41 46 47 45 42 36 32 31 30 30 30 32 33 31 29 28 28 27 25 24 23 23 21 20 18 17 16 15 19
41 38 38 37 40 41 41 39 38 37 37 36 38 38 38 36 37 39 37 37 37 37 36 36 36 35 33 31 28 25 21 19 21 24 30 34 37 41 44 42 37 33 35 34 32 32 34 33 31 29 29 30 30 28 26 26 26 24 22 20 18 19 23
42 39 nan nan 40 41 41 40 38 37 38 40 40 39 38 37 39 40 40 40 39 39 38 38 36 35 34 33 31 31 26 22 21 20 20 22 26 31 35 36 37 37 35 35 36 35 34 33 33 33 32 32 33 31 30 30 29 27 25 23 23 27 24
43 40 39 38 38 37 38 38 38 38 40 41 41 39 38 39 40 40 41 41 41 40 38 37 34 32 31 30 30 32 30 27 27 24 20 18 17 17 19 23 29 36 39 41 38 36 36 36 36 35 34 33 33 32 32 32 33 31 28 29 29 26 27
44 44 42 41 40 39 38 39 39 40 41 42 42 39 38 39 41 42 nan nan nan 40 39 37 34 32 31 29 29 30 30 31 33 31 27 25 20 15 13 12 17 23 32 39 40 39 37 37 37 36 35 35 33 32 30 31 33 33 30 28 31 31 29
nan nan nan nan nan nan nan nan nan 46 45 44 nan nan nan 39 41 nan nan 40 40 41 39 36 33 31 31 31 31 31 31 32 34 34 33 30 25 20 18 16 14 15 19 25 31 33 35 38 39 39 37 35 33 33 33 34 36 37 32 30 29 32 31
nan nan nan nan nan nan nan nan nan nan nan nan nan nan nan nan nan nan nan nan nan nan nan nan nan nan 34 33 34 33 33 32 33 33 33 31 27 24 26 25 24 23 19 16 17 18 23 29 33 35 35 35 35 35 36 35 37 40 44 39 38 38 35
nan nan nan nan nan nan nan nan nan nan nan nan nan nan nan nan nan nan nan nan nan nan nan nan nan nan nan nan nan 34 33 32 32 32 32 30 29 30 30 28 28 28 27 23 20 17 17 19 21 24 27 29 33 36 37 39 41 38 39 44 43 39 34
nan nan nan nan nan nan nan nan nan nan nan nan nan nan nan nan nan nan nan nan nan nan nan nan nan nan nan nan nan nan nan nan nan nan nan nan nan nan nan 28 28 27 27 27 26 24 23 21 19 19 20 23 26 29 32 34 37 39 41 44 43 42 38
nan nan nan nan nan nan nan nan nan nan nan nan nan nan nan nan nan nan nan nan nan nan nan nan nan nan nan nan nan nan nan nan nan nan nan nan nan nan nan nan nan nan nan 28 27 26 26 26 25 26 26 25 25 26 28 28 30 34 36 32 34 36 34
nan nan nan nan nan nan nan nan nan nan nan nan nan nan nan nan nan nan nan nan nan nan nan nan nan nan nan nan nan nan nan nan nan nan nan nan nan nan nan nan nan nan nan nan nan nan 30 29 29 29 nan nan 30 29 30 29 29 29 30 30 30 32 32
nan nan nan nan nan nan nan nan nan nan nan nan nan nan nan nan nan nan nan nan nan nan nan nan nan nan nan nan nan nan nan nan nan nan nan nan nan nan nan nan nan nan nan nan nan nan nan nan nan nan nan nan nan nan nan nan 33 32 31 31 30 30 30
nan nan nan nan nan nan nan nan nan nan nan nan nan nan nan nan nan nan nan nan nan nan nan nan nan nan nan nan nan nan nan nan nan nan nan nan nan nan nan nan nan nan nan nan nan nan nan nan nan nan nan nan nan nan nan nan nan nan nan nan 33 32 33
nan nan nan nan nan nan nan nan nan nan nan nan nan nan nan nan nan nan nan nan nan nan nan nan nan nan nan nan nan nan nan nan nan nan nan nan nan nan nan nan nan nan nan nan nan nan nan nan nan nan nan nan nan nan nan nan nan nan nan nan nan nan nan
nan nan nan nan nan nan nan nan nan nan nan nan nan nan nan nan nan nan nan nan nan nan nan nan nan nan nan nan nan nan nan nan nan nan nan nan nan nan nan nan nan nan nan nan nan nan nan nan nan nan nan nan nan nan nan nan nan nan nan nan nan nan nan
nan nan nan nan nan nan nan nan nan nan nan nan nan nan nan nan nan nan nan nan nan nan nan nan nan nan nan nan nan nan nan nan nan nan nan nan nan nan nan nan nan nan nan nan nan nan nan nan nan nan nan nan nan nan nan nan nan nan nan nan nan nan nan
nan nan nan nan nan nan nan nan nan nan nan nan nan nan nan nan nan nan nan nan nan nan nan nan nan nan nan nan nan nan nan nan nan nan nan nan nan nan nan nan nan nan nan nan nan nan nan nan nan nan nan nan nan nan nan nan nan nan nan nan nan nan nan
nan nan nan nan nan nan nan nan nan nan nan nan nan nan nan nan nan nan nan nan nan nan nan nan nan nan nan nan nan nan nan nan nan nan nan nan nan nan nan nan nan nan nan nan nan nan nan nan nan nan nan nan nan nan nan nan nan nan nan nan nan nan nan
Wind_Direction
236 224 220 217 215 217 nan nan nan nan nan nan nan nan nan nan 186 197 202 211 215 223 221 222 224 225 228 224 230 231 229 230 230 234 238 239 243 252 254 250 254 245 236 223 205 199 192 205 195 177 178 172 170 167 172 183 188 191 194 189 196 196 178
255 225 207 207 213 215 nan nan nan nan nan nan nan nan nan nan 200 195 193 204 207 227 236 226 222 222 226 224 228 236 238 236 233 228 230 233 235 241 249 259 264 267 265 251 238 223 224 216 213 195 185 182 171 178 181 181 184 196 202 209 210 206 215
264 233 199 204 212 218 221 nan nan nan nan nan nan nan nan nan 222 213 212 214 208 209 220 232 232 230 227 225 229 233 238 240 236 234 235 232 238 244 243 250 255 261 266 262 254 247 236 237 223 205 201 193 184 188 189 184 181 192 199 211 215 222 231
247 247 220 214 216 220 222 220 nan nan nan nan nan nan nan nan 236 230 230 243 250 229 229 223 231 236 235 233 229 232 236 238 238 235 233 231 235 237 239 240 247 249 254 264 266 262 251 250 242 223 209 207 194 196 202 193 191 193 200 209 204 213 212
226 232 230 229 227 226 224 219 215 nan 216 222 nan nan nan nan 242 240 232 225 239 265 271 268 240 238 232 233 227 228 232 237 235 232 232 231 232 236 238 240 243 251 255 256 259 264 266 263 255 244 226 220 211 208 204 205 199 205 209 212 201 206 199
236 244 243 229 223 220 219 219 220 219 218 218 222 nan nan nan nan 247 244 241 230 219 219 225 230 233 235 231 229 229 229 230 232 232 233 233 234 235 237 238 241 243 249 256 257 261 267 267 265 257 248 232 227 223 218 214 210 213 217 219 208 204 196
238 243 243 229 222 221 220 213 209 214 215 216 219 225 236 nan nan nan 246 251 249 251 244 239 233 231 226 229 226 230 234 235 234 234 231 232 230 231 233 236 238 240 241 247 252 257 260 264 266 262 255 246 237 235 236 234 228 228 227 228 223 213 203
240 238 237 238 236 233 232 224 218 221 221 219 220 224 230 237 240 241 250 257 259 257 251 250 243 236 233 230 226 226 229 232 233 231 229 229 226 226 229 232 236 239 240 242 244 251 253 257 255 257 257 250 246 241 241 242 244 242 240 237 236 224 220
233 236 237 240 244 241 237 234 227 233 237 226 222 223 226 234 243 248 245 249 255 259 258 257 252 243 241 239 233 227 226 230 232 233 231 228 225 223 225 227 231 235 239 236 234 238 242 246 249 255 257 255 250 246 242 245 246 248 250 246 247 242 232
240 241 238 241 245 244 240 235 232 227 221 221 220 220 219 218 217 220 227 237 238 241 248 253 252 248 242 239 237 234 232 231 232 235 231 226 224 223 222 223 226 230 232 233 230 231 230 234 239 244 249 253 252 250 245 247 246 251 252 254 255 250 247
236 240 242 244 246 242 238 236 234 230 230 231 228 228 228 222 220 218 226 233 238 240 244 247 248 247 242 239 241 240 238 235 236 237 234 226 224 223 224 224 224 227 229 231 230 227 227 225 230 232 238 242 249 253 253 251 254 255 252 251 253 253 249
243 244 243 243 245 246 248 248 248 242 224 218 222 228 235 237 237 232 237 241 241 243 247 248 244 238 233 234 240 240 240 238 238 240 239 234 229 226 226 226 224 225 226 229 228 226 225 224 226 228 229 232 237 246 250 252 252 256 254 256 255 252 248
249 249 246 239 236 241 242 241 241 233 225 228 232 231 230 233 235 233 229 225 228 232 242 246 248 250 245 240 237 233 236 238 237 236 239 237 235 233 232 231 227 225 225 227 225 224 221 220 222 223 225 223 227 231 239 243 247 248 251 252 256 257 255
247 249 245 239 237 238 244 243 237 232 228 233 236 234 228 228 230 233 242 245 244 244 246 247 254 255 251 247 245 240 236 242 241 237 237 235 233 234 232 232 233 232 230 230 228 224 221 219 221 221 223 222 223 225 230 236 239 242 242 244 252 257 260
250 250 247 243 240 235 236 237 236 233 230 231 235 235 230 226 228 233 236 237 241 242 247 249 252 253 250 249 250 244 234 233 235 231 230 230 233 234 234 230 225 227 231 234 233 229 225 223 223 223 222 222 222 223 227 231 235 240 243 243 244 250 259
251 251 248 242 239 237 236 236 236 235 232 229 231 232 230 226 229 233 234 235 239 244 251 249 240 244 245 247 246 241 238 240 236 236 236 233 229 226 224 224 226 227 228 226 224 224 226 226 224 224 224 223 225 226 227 228 233 239 250 251 246 248 248
253 252 247 242 239 237 239 240 238 237 235 234 232 230 229 228 227 232 235 236 241 245 249 258 257 252 252 251 247 244 244 245 242 236 235 237 238 235 231 227 224 221 222 226 227 228 224 222 220 224 227 226 227 229 230 230 233 245 255 261 262 250 249
251 252 249 242 239 241 242 242 240 236 233 234 234 232 232 232 233 234 236 235 238 243 248 252 254 253 251 261 262 254 252 250 244 238 233 232 236 239 236 231 228 226 225 223 223 225 225 224 224 220 219 224 227 229 232 231 233 242 252 261 267 265 256
250 253 251 245 241 243 240 239 238 236 233 232 232 232 232 235 236 236 236 234 234 241 246 247 249 250 244 242 250 261 258 254 248 239 235 231 234 236 237 237 233 229 227 227 229 228 228 228 225 224 224 228 226 226 230 232 236 242 247 255 263 268 262
251 254 253 249 246 243 239 234 233 233 233 233 233 232 232 235 238 238 236 234 232 236 238 240 240 239 236 239 244 251 255 253 247 239 235 236 240 240 239 241 241 236 230 227 228 229 229 227 228 232 233 233 233 231 232 235 234 239 245 250 257 261 262
250 251 255 254 248 241 238 234 233 233 232 231 231 231 231 232 234 237 236 234 235 235 235 233 235 236 236 239 242 243 249 257 253 243 237 235 237 240 239 238 236 234 229 226 225 227 229 230 228 230 235 236 236 235 235 237 239 240 244 249 256 258 260
252 253 254 251 246 240 237 234 233 233 232 231 232 231 231 231 233 235 235 234 236 238 237 237 240 241 241 244 247 245 246 255 256 247 239 237 239 239 237 234 230 231 227 224 226 226 229 232 233 235 239 239 237 235 233 235 242 243 245 250 254 262 259
255 255 nan nan 241 239 236 234 232 232 233 231 230 230 229 231 234 235 235 234 235 238 238 237 239 240 242 245 246 245 244 249 250 242 239 238 238 238 235 230 227 227 228 227 225 227 228 227 229 232 237 240 242 241 239 237 238 239 239 246 254 258 257
250 251 245 240 237 237 237 236 233 230 233 234 231 230 231 233 236 236 236 236 236 238 238 238 238 240 241 244 247 246 243 243 244 239 232 232 236 240 238 232 231 230 226 224 222 224 225 225 225 226 227 229 232 238 238 239 241 241 238 234 241 247 253
243 242 237 233 235 237 237 238 237 235 233 233 233 229 231 233 236 237 nan nan nan 240 240 239 238 239 241 242 245 246 242 240 240 239 237 239 241 248 251 238 229 233 233 230 225 222 223 224 222 223 226 229 229 229 234 238 242 245 241 240 243 245 244
nan nan nan nan nan nan nan nan nan 234 232 233 nan nan nan 234 235 nan nan 239 241 241 242 241 241 241 242 241 244 247 244 242 241 241 243 246 250 256 267 261 247 234 237 236 233 226 222 224 225 224 227 229 228 229 232 234 235 241 243 241 240 246 246
nan nan nan nan nan nan nan nan nan nan nan nan nan nan nan nan nan nan nan nan nan nan nan nan nan nan 243 242 244 246 246 245 245 246 249 251 255 260 261 259 256 253 255 253 249 241 233 230 228 227 228 230 229 228 230 232 237 241 242 241 241 245 247
nan nan nan nan nan nan nan nan nan nan nan nan nan nan nan nan nan nan nan nan nan nan nan nan nan nan nan nan nan 246 247 247 246 248 248 248 246 245 247 250 253 255 256 259 261 258 250 242 235 231 231 233 234 232 232 233 237 240 241 237 239 245 252
nan nan nan nan nan nan nan nan nan nan nan nan nan nan nan nan nan nan nan nan nan nan nan nan nan nan nan nan nan nan nan nan nan nan nan nan nan nan nan 245 246 247 250 253 255 255 254 250 245 240 236 237 236 234 234 234 237 239 239 237 236 235 238
nan nan nan nan nan nan nan nan nan nan nan nan nan nan nan nan nan nan nan nan nan nan nan nan nan nan nan nan nan nan nan nan nan nan nan nan nan nan nan nan nan nan nan 247 249 248 247 247 246 245 243 240 238 237 235 233 237 240 241 240 240 239 232
nan nan nan nan nan nan nan nan nan nan nan nan nan nan nan nan nan nan nan nan nan nan nan nan nan nan nan nan nan nan nan nan nan nan nan nan nan nan nan nan nan nan nan nan nan nan 242 241 242 243 nan nan 242 240 239 239 244 245 245 246 245 243 236
nan nan nan nan nan nan nan nan nan nan nan nan nan nan nan nan nan nan nan nan nan nan nan nan nan nan nan nan nan nan nan nan nan nan nan nan nan nan nan nan nan nan nan nan nan nan nan nan nan nan nan nan nan nan nan nan 247 248 247 246 245 247 246
nan nan nan nan nan nan nan nan nan nan nan nan nan nan nan nan nan nan nan nan nan nan nan nan nan nan nan nan nan nan nan nan nan nan nan nan nan nan nan nan nan nan nan nan nan nan nan nan nan nan nan nan nan nan nan nan nan nan nan nan 247 248 249
nan nan nan nan nan nan nan nan nan nan nan nan nan nan nan nan nan nan nan nan nan nan nan nan nan nan nan nan nan nan nan nan nan nan nan nan nan nan nan nan nan nan nan nan nan nan nan nan nan nan nan nan nan nan nan nan nan nan nan nan nan nan nan
nan nan nan nan nan nan nan nan nan nan nan nan nan nan nan nan nan nan nan nan nan nan nan nan nan nan nan nan nan nan nan nan nan nan nan nan nan nan nan nan nan nan nan nan nan nan nan nan nan nan nan nan nan nan nan nan nan nan nan nan nan nan nan
nan nan nan nan nan nan nan nan nan nan nan nan nan nan nan nan nan nan nan nan nan nan nan nan nan nan nan nan nan nan nan nan nan nan nan nan nan nan nan nan nan nan nan nan nan nan nan nan nan nan nan nan nan nan nan nan nan nan nan nan nan nan nan
nan nan nan nan nan nan nan nan nan nan nan nan nan nan nan nan nan nan nan nan nan nan nan nan nan nan nan nan nan nan nan nan nan nan nan nan nan nan nan nan nan nan nan nan nan nan nan nan nan nan nan nan nan nan nan nan nan nan nan nan nan nan nan
nan nan nan nan nan nan nan nan nan nan nan nan nan nan nan nan nan nan nan nan nan nan nan nan nan nan nan nan nan nan nan nan nan nan nan nan nan nan nan nan nan nan nan nan nan nan nan nan nan nan nan nan nan nan nan nan nan nan nan nan nan nan nan